User: anonymous   Login
Location: Unspecified
(0.0000°N, 0.0000°E)
Time: 22:37:14
(UTC+00:00)
Language:

FIREBIRD 3 - Orbit

View from above orbital plane
View from above orbital plane
View from above satellite
View from above satellite

Ground track
Ground track

The orbit data is extracted from the following two-line orbital elements,

1 40377U 15003B   23083.25699136  .00318221  00000-0  48074-2 0  9999
2 40377  99.0769  18.5063 0066129 144.4311 216.1370 15.51159502451394
Epoch (UTC): 24 March 2023 06:10:04
Eccentricity: 0.0066129
inclination: 99.0769°
perigee height: 368 km
apogee height: 458 km
right ascension of ascending node: 18.5063°
argument of perigee: 144.4311°
revolutions per day: 15.51159502
mean anomaly at epoch: 216.1370°
orbit number at epoch: 45139

The dashed part of the orbit path shows where the satellite is in the earth's shadow,  

DLR